Total_Precipitation_Accumulation
0.04 0.06 0.10 0.09 0.09 0.17 0.18 0.19 0.27 0.33 0.28 0.35 0.49 0.63 0.84 1.01 1.29 1.56 1.56 1.51 1.58 1.83 2.13 2.37 2.72 3.10 3.31 3.48 3.59 3.89 4.12 3.88 3.44 3.06 2.61 2.46 2.40 2.18 1.99 1.90 1.76 1.92 1.88 2.12
0.03 0.05 0.07 0.05 0.05 0.10 0.13 0.15 0.27 0.35 0.29 0.34 0.49 0.79 0.95 1.03 1.09 1.23 1.36 1.27 1.37 1.68 1.74 1.84 2.00 2.32 2.46 2.70 3.00 3.33 3.57 3.39 2.86 2.64 2.48 2.38 2.34 2.16 2.15 2.07 2.07 1.87 1.87 2.08
0.03 0.05 0.05 0.04 0.04 0.06 0.12 0.13 0.19 0.28 0.33 0.43 0.55 1.12 1.18 1.03 0.95 0.88 1.07 1.13 1.12 1.31 1.47 1.55 1.58 1.67 1.98 2.55 2.77 2.67 2.89 3.03 2.76 2.64 2.57 2.50 2.47 2.27 2.34 2.31 2.22 1.86 1.74 1.77
0.03 0.03 0.03 0.04 0.04 0.05 0.11 0.10 0.11 0.16 0.25 0.56 0.65 1.21 1.25 1.08 1.08 0.89 0.87 0.93 0.87 0.85 1.04 1.22 1.25 1.35 1.57 1.87 2.14 2.46 2.77 2.85 2.74 2.59 2.37 2.25 2.06 1.99 2.02 2.06 2.08 1.96 1.85 1.72
0.03 0.02 0.02 0.03 0.04 0.04 0.06 0.06 0.08 0.15 0.26 0.49 0.62 1.01 1.22 1.05 1.23 0.96 0.68 0.59 0.53 0.51 0.64 0.84 0.97 1.10 1.18 1.32 1.69 2.21 2.67 2.91 2.73 2.43 2.26 2.31 2.13 2.08 2.06 1.98 2.20 2.06 1.91 1.75
0.03 0.02 0.02 0.02 0.03 0.03 0.03 0.07 0.17 0.30 0.46 0.84 0.79 0.85 1.14 0.89 0.74 0.59 0.47 0.37 0.38 0.43 0.48 0.59 0.71 0.91 1.02 1.10 1.35 1.75 2.12 2.38 2.44 2.31 2.21 2.27 2.31 2.27 2.13 1.96 1.97 1.82 1.79 1.74
0.08 0.07 0.04 0.03 0.02 0.03 0.03 0.08 0.32 0.57 0.82 0.98 0.63 0.81 1.16 0.74 0.57 0.46 0.38 0.35 0.35 0.34 0.47 0.61 0.69 0.80 0.83 0.87 1.06 1.38 1.61 1.80 2.02 2.15 2.16 2.12 2.25 2.29 2.08 1.87 1.88 1.86 1.70 1.68
0.10 0.16 0.08 0.03 0.03 0.04 0.04 0.06 0.16 0.29 0.41 0.58 0.63 1.29 1.17 0.60 0.46 0.38 0.33 0.33 0.35 0.35 0.44 0.59 0.71 0.75 0.76 0.79 0.98 1.18 1.37 1.60 1.87 2.03 2.10 2.08 2.04 1.92 1.87 1.99 1.90 1.88 1.82 1.75
0.04 0.06 0.05 0.04 0.03 0.04 0.05 0.06 0.08 0.12 0.16 0.41 0.76 0.96 0.73 0.41 0.38 0.40 0.36 0.39 0.42 0.48 0.59 0.69 0.84 0.88 0.78 0.81 0.99 1.10 1.29 1.47 1.61 1.86 2.03 1.97 1.95 1.83 1.81 1.86 1.80 1.74 1.87 1.82
0.03 0.03 0.03 0.03 0.03 0.04 0.05 0.04 0.07 0.09 0.14 0.31 0.62 0.85 0.90 0.61 0.48 0.43 0.42 0.44 0.46 0.58 0.77 0.90 0.89 0.91 0.86 0.87 1.01 1.10 1.27 1.39 1.41 1.54 1.61 1.51 1.71 1.76 1.89 1.86 1.76 1.67 1.67 1.71
0.02 0.02 0.02 0.03 0.04 0.06 0.07 0.05 0.05 0.06 0.08 0.20 0.48 0.67 0.66 0.60 0.56 0.44 0.42 0.50 0.57 0.58 0.77 0.90 0.86 0.86 0.83 0.88 0.96 1.01 1.15 1.27 1.31 1.44 1.50 1.55 1.64 1.71 1.76 1.78 1.76 1.75 1.75 1.77
0.02 0.02 0.02 0.05 0.06 0.06 0.09 0.10 0.10 0.09 0.08 0.12 0.24 0.39 0.37 0.44 0.51 0.44 0.45 0.56 0.66 0.52 0.59 0.80 0.89 0.93 0.75 0.80 0.88 0.93 1.05 1.17 1.24 1.41 1.54 1.60 1.76 1.79 1.72 1.72 1.91 1.92 1.90 1.89
0.02 0.02 0.04 0.10 0.15 0.11 0.08 0.08 0.10 0.10 0.09 0.09 0.17 0.33 0.33 0.36 0.46 0.44 0.49 0.60 0.63 0.62 0.61 0.76 0.87 0.81 0.73 0.75 0.84 0.88 0.98 1.09 1.19 1.34 1.49 1.69 1.75 1.79 1.91 2.05 2.20 2.25 2.17 2.13
0.03 0.02 0.03 0.11 0.19 0.23 0.17 0.10 0.09 0.09 0.09 0.09 0.13 0.25 0.33 0.43 0.49 0.49 0.51 0.63 0.65 0.62 0.59 0.61 0.78 0.82 0.76 0.74 0.78 0.84 0.96 1.11 1.28 1.53 1.70 1.82 1.99 2.10 2.16 2.13 2.21 2.23 2.24 2.28
0.03 0.02 0.02 0.05 0.08 0.13 0.13 0.10 0.09 0.08 0.08 0.10 0.14 0.23 0.34 0.44 0.50 0.57 0.59 0.59 0.61 0.57 0.60 0.72 0.84 0.98 0.97 0.91 0.85 0.90 1.13 1.34 1.56 1.84 1.93 1.95 2.02 2.13 2.27 2.40 2.42 2.40 2.39 2.35
0.05 0.04 0.05 0.06 0.08 0.09 0.08 0.08 0.08 0.07 0.07 0.09 0.14 0.24 0.36 0.49 0.55 0.51 0.53 0.51 0.56 0.65 0.72 0.87 0.99 1.09 1.19 1.23 1.23 1.28 1.43 1.70 2.00 2.31 2.42 2.53 2.59 2.65 2.71 2.74 2.77 2.82 2.77 2.72
0.14 0.15 0.14 0.13 0.12 0.12 0.10 0.10 0.10 0.10 0.11 0.13 0.19 0.28 0.43 0.58 0.55 0.61 0.64 0.62 0.71 0.78 0.87 0.98 1.08 1.15 1.28 1.33 1.41 1.59 1.78 2.03 2.27 2.45 2.55 2.67 2.77 2.89 2.99 3.02 3.03 2.91 2.85 2.79
0.34 0.30 0.24 0.19 0.23 0.25 0.15 0.16 0.19 0.22 0.25 0.28 0.31 0.38 0.47 0.59 0.61 0.65 0.69 0.68 0.71 0.83 1.00 1.04 1.11 1.21 1.28 1.41 1.58 1.74 1.85 2.03 2.35 2.56 2.64 2.67 2.72 2.82 2.97 3.13 3.08 2.94 2.91 2.86
0.43 0.49 0.44 0.32 0.29 0.31 0.30 0.27 0.29 0.39 0.47 0.44 0.60 0.67 0.62 0.65 0.71 0.74 0.74 0.89 0.91 0.90 0.99 1.06 1.17 1.27 1.38 1.44 1.50 1.53 1.63 1.82 2.04 2.27 2.44 2.45 2.57 2.76 2.87 2.91 2.94 3.01 2.99 2.79
0.34 0.39 0.45 0.47 0.49 0.46 0.45 0.47 0.38 0.44 0.77 0.77 0.86 0.95 0.89 0.92 1.10 1.03 0.79 0.79 0.86 0.93 1.00 1.12 1.27 1.36 1.36 1.36 1.37 1.46 1.61 1.83 2.03 2.25 2.44 2.61 2.74 2.88 2.92 2.97 3.08 3.10 3.04 3.00
0.51 0.53 0.52 0.54 0.59 0.58 0.51 0.47 0.49 0.82 1.09 1.07 1.15 1.18 1.11 1.15 1.19 1.10 0.94 0.88 0.87 0.94 1.01 1.11 1.26 1.41 1.44 1.42 1.56 1.68 1.82 1.98 2.16 2.28 2.37 2.51 2.69 2.91 3.16 3.32 3.24 3.21 3.16 3.06
0.74 0.74 0.72 0.76 0.95 1.06 0.78 0.71 0.93 1.11 0.88 0.94 1.12 1.33 1.35 1.29 1.21 1.12 1.04 0.97 0.90 0.87 0.95 1.13 1.25 1.37 1.52 1.62 1.78 1.92 1.94 2.01 2.19 2.38 2.46 2.52 2.70 2.78 2.93 3.17 3.19 3.10 3.07 2.98
0.85 0.95 1.04 1.08 1.26 1.14 0.97 0.98 0.93 1.01 1.18 1.25 1.35 1.55 1.57 1.41 1.27 1.27 1.20 1.08 1.00 0.98 1.04 1.15 1.27 1.39 1.48 1.67 1.86 2.02 2.11 2.18 2.27 2.38 2.52 2.69 2.76 2.80 2.90 3.06 3.12 3.08 2.98 2.85
0.90 0.78 0.99 1.29 1.43 1.27 1.11 1.08 1.04 1.11 1.30 1.39 1.37 1.40 1.43 1.40 1.33 1.44 1.44 1.28 1.24 1.26 1.25 1.29 1.37 1.45 1.52 1.61 1.80 2.01 2.13 2.17 2.29 2.35 2.40 2.55 2.68 2.80 2.94 2.95 2.83 2.69 2.53 2.46
0.95 0.97 1.16 1.57 1.76 1.68 1.49 1.36 1.27 1.30 1.27 1.35 1.29 1.32 1.32 1.36 1.35 1.41 1.53 1.56 1.49 1.37 1.32 1.37 1.45 1.54 1.57 1.61 1.69 1.92 2.13 2.21 2.24 2.34 2.39 2.38 2.40 2.48 2.63 2.70 2.64 2.49 2.32 2.19
1.05 1.25 1.57 1.95 1.93 2.03 1.90 1.59 1.41 1.47 1.44 1.39 1.35 1.42 1.47 1.44 1.39 1.42 1.55 1.60 1.57 1.47 1.42 1.45 1.49 1.51 1.54 1.64 1.74 1.83 2.10 2.36 2.42 2.40 2.27 2.19 2.10 2.10 2.14 2.15 2.19 2.27 2.13 2.11